Regional Weather Roundup
Issued by NWS Upton, NY

Current Version | Previous Version | Text Only | Print | Product List | Glossary On
Versions: 1 2 3 4 5 6 7 8 9 10 11 12 13 14 15 16 17 18 19 20 21 22 23 24 25 26 27 28 29 30 31 32 33 34 35 36 37 38 39 40 41 42 43 44 45 46 47 48 49 50
000
ASUS41 KOKX 040505
RWROKX

REGIONAL WEATHER ROUNDUP
NATIONAL WEATHER SERVICE NEW YORK NY
1200 AM EST WED MAR 04 2015

NOTE: "FAIR" INDICATES FEW OR NO CLOUDS BELOW 12,000 FEET WITH NO
SIGNIFICANT WEATHER AND/OR OBSTRUCTIONS TO VISIBILITY.

NYZ071-072-176-178-NJZ106-104-040600-
NEW YORK CITY METRO AREA


CITY           SKY/WX    TMP DP  RH WIND       PRES   REMARKS
CENTRAL PARK   CLOUDY    36  31  82 MISG      29.84F
LAGUARDIA APRT CLOUDY    36  32  85 SW9G20    29.81F WCI  29
KENNEDY INTL   LGT RAIN  36  32  85 S16       29.84F WCI  26
NEWARK/LIBERTY LGT RAIN  34  32  92 S17G25    29.82F WCI  23
BRNX BOT. GARD   N/A     34  34 100 SE2       29.85F
TETERBORO      LGT RAIN  34  31  88 SW7       29.83R WCI  28
$$

NYZ177-179-078>081-040600-
LONG ISLAND NEW YORK

CITY           SKY/WX    TMP DP  RH WIND       PRES   REMARKS
FARMINGDALE    CLOUDY    35  34  96 SW12      29.83F WCI  27
ISLIP          RAIN      35  33  92 S6        29.80F FOG     WCI  30
SHIRLEY        LGT RAIN  35  33  92 S5        29.83F FOG     WCI  31
WESTHAMPTON    LGT RAIN  35  33  92 CALM      29.84F VSB 1/2
MONTAUK POINT    N/A     39  37  92 S8        29.84F WCI  33
$$

NYZ052-065-067-040600-
HUDSON VALLEY

CITY           SKY/WX    TMP DP  RH WIND       PRES   REMARKS
WHITE PLAINS   CLOUDY    34  32  92 VRB3      29.80F
NEWBURGH       CLOUDY    32  30  93 CALM      29.79F
MONTGOMERY     CLOUDY    33  29  85 SW6       29.77F WCI  28
POUGHKEEPSIE   CLOUDY    35  31  85 CALM      29.80F
ALBANY         CLOUDY    29  23  78 S21G31    29.71F WCI  16
$$

NJZ001-105-106-008-010-013-015-019>022-104-040600-
NEW JERSEY

CITY           SKY/WX    TMP DP  RH WIND       PRES   REMARKS
NEWARK/LIBERTY LGT RAIN  34  32  92 S17G25    29.82F WCI  23
TETERBORO      LGT RAIN  34  31  88 SW7       29.83R WCI  28
CALDWELL       CLOUDY    33  29  85 W6        29.82F WCI  28
MORRISTOWN     CLOUDY    36  32  87 SW8       29.82F WCI  29
SOMERVILLE     CLOUDY    33  30  88 S5        29.81F WCI  29
SUSSEX         CLOUDY    33  29  85 W9        29.78F WCI  25
ANDOVER          N/A     32  30  92 SW13G20   29.76F WCI  22
TRENTON        FRZ RAIN  33  30  88 VRB7      29.85F WCI  27
MILLVILLE      CLOUDY    34  33  96 SW10G18   29.89F FOG     WCI  26
ATLANTIC CITY  CLOUDY    36  34  92 SW15G22   29.88F FOG     WCI  27
WRIGHTSTOWN    CLOUDY    33  33  99 W13       29.84F WCI  24
TOMS RIVER     CLOUDY    34  34 100 CALM      29.85F
BELMAR         CLOUDY    34  28  80 CALM      29.84F
$$

PAZ047>061-062-071-040600-
EASTERN PENNSYLVANIA

CITY           SKY/WX    TMP DP  RH WIND       PRES   REMARKS
PHILADELPHIA   CLOUDY    34  32  92 SW10      29.88F FOG     WCI  26
ALLENTOWN      SLEET     33  30  88 CALM      29.82F
SCRANTON       CLOUDY    30  26  85 S7        29.73F FOG     WCI  23
$$

CTZ002-004>006-009-010-012-RIZ004-006-007-MAZ004-011-015-040600-
SOUTHERN NEW ENGLAND
 IN CT

CITY           SKY/WX    TMP DP  RH WIND       PRES   REMARKS
BRADLEY INTL   LGT RAIN  35  31  85 S12       29.79F WCI  27
HARTFORD       LGT RAIN  34  32  92 S10       29.82F WCI  26
DANBURY        LGT RAIN  35  30  82 SW10      29.80F WCI  27
WTRBRY/OXFORD  CLOUDY    34  27  75 SW9       29.80F WCI  26
BRIDGEPORT     LGT RAIN  33  33 100 SW3       29.84F FOG
MERIDEN        LGT RAIN  33  31  92 S7        29.83F FOG     WCI  27
NEW HAVEN      LGT RAIN  33  33 100 CALM      29.84F FOG
CHESTER        RAIN      34  34 100 SW6       29.85F WCI  29
GROTON         MIX PCPN  32  32 100 CALM      29.84F FOG
WILLIMANTIC    LGT RAIN  34  32  92 S6        29.83F WCI  29

 IN RI

CITY           SKY/WX    TMP DP  RH WIND       PRES   REMARKS
PROVIDENCE     LGT RAIN  34  33  96 S9        29.84F FOG     WCI  27
BLOCK ISLAND   CLOUDY    39  36  87 S16G24    29.83F VSB 3/4 WCI  30
WESTERLY       RAIN      37  36  96 S8        29.84F FOG     WCI  31

 IN MA

CITY           SKY/WX    TMP DP  RH WIND       PRES   REMARKS
BOSTON         FRZ RAIN  32  31  96 S8        29.80F FOG     WCI  25
WORCESTER      FRZ RAIN  32  29  88 SW21G30   29.74F FOG     WCI  20
WESTFIELD      FRZ RAIN  30  28  92 S3        29.77F
PROVINCETOWN   CLOUDY    34  30  86 S18G26    29.84F WCI  23
NANTUCKET      MIX PCPN  37  34  89 S21       29.88F FOG     WCI  26
$$

ANZ330-335-338-340-345-350-353-355-040600-
COASTAL MARINE OBSERVATIONS


STATION/POSITION TIME  SKY/WX   TEMP    WIND        PRES    VSBY  WAVE
                                AIR SEA DIR/SP/G                  HT/PER
                 (UTC)          (F)     (DEG/KT/KT) (MB)    (MI)  (FT/S)
NY HARB ENTRANCE 0500            36 38  240/  8/ 10 1011.0          2/ 4
4S FIRE IS       0500               32                N/A           3/ 5
20S FIRE ISLAND  0400               36              1012.4          3/ 5
23SW MTP         0500                                 N/A           4/ 5
HUDSON CANYON    NOT AVBL
EXECUTION ROCKS  NOT AVBL
WESTERN LI SOUND NOT AVBL
CENTRAL LI SOUND NOT AVBL
EASTERN LI SOUND NOT AVBL
ROBBINS REEF     0500            34     200/ 12/ 15 1008.7
$$


>>>>>>>>>>>>>>>>>>>>>>>>>>>> KEY <<<<<<<<<<<<<<<<<<<<<<<<<<<
>                                                          <
>     SKY/WX - SKY CONDITION/PRESENT WEATHER               <
>     TMP    - TEMPERATURE IN FAHRENHEIT                   <
>     DP     - DEWPOINT IN FAHRENHEIT                      <
>     RH     - RELATIVE HUMIDITY IN PERCENT                <
>     WIND   - DIRECTION AND SPEED IN MPH                  <
>     PRES   - MEAN SEA LEVEL PRESSURE IN INCHES OF HG     <
>     WCI    - WIND CHILL INDEX                            <
>     VSB    - VISIBILITY IN MILES                         <
>     HX     - HEAT INDEX                                  <
>     TC     - TEMPERATURE IN CELSIUS                      <
>     VRB    - VARIABLE WIND DIRECTION                     <
>                                                          <
>>>>>>>>>>>>>>>>>>>>>>>>>>>> KEY <<<<<<<<<<<<<<<<<<<<<<<<<<<




USA.gov is the U.S. government's official web portal to all federal, state and local government web resources and services.